| time (UTC) | temp F | wind direction | speed MPH | gust MPH | rain 1hr in | rain 24hr in | rain mn in | humidity % | barometer mb |
| 20260510144605 | 50 | 101 | 0.0 | 3.0 | 0.00 | 0.00 | 0.00 | 85 | 1017.2 |
| 20260510141542 | 47 | 201 | 0.0 | 2.0 | 0.00 | 0.00 | 0.00 | 88 | 1016.9 |
| 20260510140034 | 46 | 178 | 0.0 | 2.0 | 0.00 | 0.00 | 0.00 | 89 | 1017.1 |
| 20260510131534 | 44 | 142 | 0.0 | 1.0 | 0.00 | 0.00 | 0.00 | 90 | 1017.0 |
| 20260510130032 | 44 | 202 | 0.0 | 1.0 | 0.00 | 0.00 | 0.00 | 89 | 1016.9 |
| 20260510123149 | 45 | 225 | 0.0 | 0.0 | 0.00 | 0.00 | 0.00 | 88 | 1017.1 |
| 20260510120053 | 44 | 223 | 0.0 | 3.0 | 0.00 | 0.00 | 0.00 | 88 | 1016.9 |
| 20260510114531 | 44 | 202 | 0.0 | 0.0 | 0.00 | 0.00 | 0.00 | 87 | 1016.9 |
| 20260510113035 | 44 | 202 | 0.0 | 1.0 | 0.00 | 0.00 | 0.00 | 85 | 1016.9 |
| 20260510111531 | 46 | 202 | 0.0 | 0.0 | 0.00 | 0.00 | 0.00 | 85 | 1016.7 |
| 20260510110035 | 47 | 202 | 0.0 | 1.0 | 0.00 | 0.00 | 0.00 | 85 | 1016.6 |
| 20260510104651 | 46 | 184 | 0.0 | 2.0 | 0.00 | 0.00 | 0.00 | 85 | 1016.8 |
| 20260510103035 | 47 | 180 | 0.0 | 2.0 | 0.00 | 0.00 | 0.00 | 85 | 1016.9 |
| 20260510101648 | 47 | 180 | 0.0 | 2.0 | 0.00 | 0.00 | 0.00 | 85 | 1016.7 |
| 20260510100030 | 47 | 180 | 0.0 | 0.0 | 0.00 | 0.00 | 0.00 | 85 | 1016.7 |
| 20260510094536 | 47 | 180 | 0.0 | 0.0 | 0.00 | 0.00 | 0.00 | 84 | 1016.5 |
| 20260510091531 | 48 | 180 | 0.0 | 0.0 | 0.00 | 0.00 | 0.00 | 83 | 1016.6 |
| 20260510083148 | 50 | 180 | 0.0 | 0.0 | 0.00 | 0.00 | 0.00 | 79 | 1016.9 |
| 20260510081608 | 51 | 180 | 0.0 | 1.0 | 0.00 | 0.00 | 0.00 | 78 | 1016.9 |
| 20260510074533 | 52 | 198 | 0.0 | 3.0 | 0.00 | 0.00 | 0.00 | 78 | 1017.0 |
| 20260510070108 | 52 | 225 | 0.0 | 1.0 | 0.00 | 0.00 | 0.00 | 79 | 1016.9 |
| 20260510064606 | 52 | 225 | 0.0 | 1.0 | 0.00 | 0.00 | 0.00 | 79 | 1016.9 |
| 20260510063032 | 53 | 225 | 0.0 | 0.0 | 0.00 | 0.00 | 0.00 | 80 | 1016.8 |
| 20260510061534 | 53 | 225 | 0.0 | 0.0 | 0.00 | 0.00 | 0.00 | 80 | 1016.7 |
| 20260510060145 | 54 | 225 | 0.0 | 1.0 | 0.00 | 0.00 | 0.00 | 80 | 1016.6 |
| 20260510054533 | 55 | 225 | 0.0 | 1.0 | 0.00 | 0.00 | 0.00 | 80 | 1016.6 |
| 20260510053155 | 0 | 0 | 0.0 | 0.0 | 0.00 | 0.00 | 0.00 | 100 | |
| 20260510050108 | 57 | 247 | 0.0 | 2.0 | 0.00 | 0.00 | 0.00 | 78 | 1016.2 |
| 20260510044531 | 58 | 247 | 0.0 | 3.0 | 0.00 | 0.00 | 0.00 | 75 | 1016.0 |
| 20260510041536 | 61 | 210 | 0.0 | 0.0 | 0.00 | 0.00 | 0.00 | 71 | 1015.7 |
| 20260510040140 | 62 | 180 | 0.0 | 0.0 | 0.00 | 0.00 | 0.00 | 66 | 1015.5 |
| 20260510034533 | 64 | 180 | 0.0 | 0.0 | 0.00 | 0.00 | 0.00 | 62 | 1015.3 |
| 20260510033032 | 66 | 180 | 0.0 | 0.0 | 0.00 | 0.00 | 0.00 | 60 | 1015.2 |
| 20260510031543 | 68 | 180 | 0.0 | 1.0 | 0.00 | 0.00 | 0.00 | 58 | 1015.2 |
| 20260510030030 | 68 | 182 | 0.0 | 3.0 | 0.00 | 0.00 | 0.00 | 57 | 1015.1 |
| 20260510021544 | 71 | 337 | 0.0 | 0.0 | 0.00 | 0.00 | 0.00 | 47 | 1015.0 |
| 20260510020032 | 72 | 337 | 0.0 | 0.0 | 0.00 | 0.00 | 0.00 | 47 | 1015.1 |
| 20260510013035 | 72 | 337 | 0.0 | 0.0 | 0.00 | 0.00 | 0.00 | 51 | 1015.3 |
| 20260510011531 | 74 | 337 | 0.0 | 1.0 | 0.00 | 0.00 | 0.00 | 47 | 1015.4 |
| 20260510010035 | 76 | 337 | 0.0 | 1.0 | 0.00 | 0.00 | 0.00 | 45 | 1015.5 |
| 20260510003106 | 78 | 337 | 0.0 | 1.0 | 0.00 | 0.00 | 0.00 | 34 | 1015.7 |
| 20260510001535 | 77 | 49 | 0.0 | 4.0 | 0.00 | 0.00 | 0.00 | 36 | 1015.6 |
| 20260510000106 | 79 | 99 | 0.0 | 3.0 | 0.00 | 0.00 | 0.00 | 34 | 1015.9 |
| 20260509234535 | 79 | 84 | 0.0 | 4.0 | 0.00 | 0.00 | 0.00 | 30 | 1016.1 |
| 20260509233037 | 78 | 121 | 0.0 | 4.0 | 0.00 | 0.00 | 0.00 | 32 | 1016.2 |
| 20260509231531 | 78 | 63 | 1.0 | 5.0 | 0.00 | 0.00 | 0.00 | 31 | 1016.6 |
| 20260509224536 | 78 | 154 | 0.0 | 3.0 | 0.00 | 0.00 | 0.00 | 35 | 1017.1 |
| 20260509223106 | 78 | 32 | 0.0 | 4.0 | 0.00 | 0.00 | 0.00 | 35 | 1017.4 |
| 20260509221537 | 77 | 355 | 0.0 | 5.0 | 0.00 | 0.00 | 0.00 | 35 | 1017.6 |
| 20260509220037 | 76 | 10 | 2.0 | 6.0 | 0.00 | 0.00 | 0.00 | 36 | 1017.8 |
| 20260509214534 | 76 | 23 | 1.0 | 7.0 | 0.00 | 0.00 | 0.00 | 34 | 1018.1 |
| 20260509213035 | 75 | 35 | 1.0 | 7.0 | 0.00 | 0.00 | 0.00 | 34 | 1018.3 |
| 20260509211653 | 75 | 351 | 3.0 | 8.0 | 0.00 | 0.00 | 0.00 | 34 | 1018.5 |
| 20260509210035 | 75 | 354 | 2.0 | 6.0 | 0.00 | 0.00 | 0.00 | 35 | 1018.8 |
| 20260509204538 | 75 | 359 | 2.0 | 7.0 | 0.00 | 0.00 | 0.00 | 35 | 1018.9 |
| 20260509203035 | 75 | 19 | 1.0 | 6.0 | 0.00 | 0.00 | 0.00 | 37 | 1019.1 |
| 20260509201533 | 75 | 23 | 1.0 | 4.0 | 0.00 | 0.00 | 0.00 | 39 | 1019.3 |
| 20260509200031 | 73 | 24 | 2.0 | 7.0 | 0.00 | 0.00 | 0.00 | 41 | 1019.6 |
| 20260509194529 | 73 | 338 | 2.0 | 7.0 | 0.00 | 0.00 | 0.00 | 43 | 1019.9 |
| 20260509193033 | 72 | 351 | 2.0 | 7.0 | 0.00 | 0.00 | 0.00 | 44 | 1020.1 |
| 20260509191529 | 71 | 333 | 2.0 | 6.0 | 0.00 | 0.00 | 0.00 | 46 | 1020.3 |
| 20260509190031 | 70 | 10 | 1.0 | 5.0 | 0.00 | 0.00 | 0.00 | 49 | 1020.5 |
| 20260509184536 | 68 | 336 | 2.0 | 7.0 | 0.00 | 0.00 | 0.00 | 51 | 1020.7 |
| 20260509183033 | 68 | 320 | 2.0 | 6.0 | 0.00 | 0.00 | 0.00 | 52 | 1020.9 |
| 20260509181536 | 67 | 344 | 2.0 | 5.0 | 0.00 | 0.00 | 0.00 | 53 | 1021.1 |
| 20260509180032 | 67 | 329 | 2.0 | 5.0 | 0.00 | 0.00 | 0.00 | 55 | 1021.1 |
| 20260509174530 | 65 | 341 | 1.0 | 4.0 | 0.00 | 0.00 | 0.00 | 57 | 1021.1 |
| 20260509173033 | 65 | 10 | 1.0 | 5.0 | 0.00 | 0.00 | 0.00 | 58 | 1021.3 |
| 20260509171530 | 64 | 42 | 1.0 | 5.0 | 0.00 | 0.00 | 0.00 | 60 | 1021.5 |
| 20260509170106 | 63 | 360 | 1.0 | 6.0 | 0.00 | 0.00 | 0.00 | 61 | 1021.8 |
| 20260509163037 | 60 | 241 | 0.0 | 3.0 | 0.00 | 0.00 | 0.00 | 67 | 1022.0 |
| 20260509161534 | 59 | 339 | 0.0 | 4.0 | 0.00 | 0.00 | 0.00 | 68 | 1022.2 |
| 20260509160031 | 58 | 342 | 1.0 | 4.0 | 0.00 | 0.00 | 0.00 | 70 | 1022.5 |
| 20260509154536 | 56 | 357 | 0.0 | 3.0 | 0.00 | 0.00 | 0.00 | 72 | 1022.6 |
| 20260509153106 | 55 | 332 | 0.0 | 3.0 | 0.00 | 0.00 | 0.00 | 74 | 1022.5 |
| 20260509151535 | 54 | 30 | 0.0 | 3.0 | 0.00 | 0.00 | 0.00 | 76 | 1022.5 |
| 20260509150035 | 53 | 90 | 0.0 | 1.0 | 0.00 | 0.00 | 0.00 | 79 | 1022.6 |